TimeCDT,TemperatureF,Dew PointF,Humidity,Sea Level PressureIn,VisibilityMPH,Wind Direction,Wind SpeedMPH,Gust SpeedMPH,PrecipitationIn,Events,Conditions,WindDirDegrees,DateUTC
12:53 AM,55.9,32.0,40,30.03,10.0,SSE,10.4,-,N/A,,Mostly Cloudy,160,2013-03-10 06:53:00
1:53 AM,57.9,30.9,36,30.02,10.0,South,15.0,20.7,N/A,,Mostly Cloudy,170,2013-03-10 07:53:00
3:53 AM,57.9,30.9,36,30.00,10.0,South,11.5,19.6,N/A,,Mostly Cloudy,170,2013-03-10 08:53:00
4:53 AM,57.0,30.9,37,30.03,10.0,South,12.7,-,N/A,,Overcast,170,2013-03-10 09:53:00
5:53 AM,57.0,30.9,37,30.04,10.0,SSE,10.4,-,N/A,,Overcast,160,2013-03-10 10:53:00
6:53 AM,57.2,30.2,36,30.04,10.0,SSE,6.9,-,N/A,,Mostly Cloudy,160,2013-03-10 11:53:00
7:53 AM,57.0,32.0,39,30.04,10.0,South,9.2,-,N/A,,Mostly Cloudy,180,2013-03-10 12:53:00
8:53 AM,59.0,30.9,35,30.02,10.0,South,13.8,-,N/A,,Mostly Cloudy,170,2013-03-10 13:53:00
9:53 AM,62.1,32.0,32,30.01,10.0,South,24.2,33.4,N/A,,Mostly Cloudy,170,2013-03-10 14:53:00
10:53 AM,63.0,33.1,33,30.01,10.0,South,23.0,28.8,N/A,,Mostly Cloudy,170,2013-03-10 15:53:00
11:53 AM,68.0,36.0,31,29.99,10.0,SSE,16.1,33.4,N/A,,Mostly Cloudy,160,2013-03-10 16:53:00
12:53 PM,66.9,35.1,31,29.96,10.0,South,20.7,35.7,N/A,,Mostly Cloudy,180,2013-03-10 17:53:00
1:53 PM,70.0,35.1,28,29.95,10.0,South,20.7,35.7,N/A,,Mostly Cloudy,180,2013-03-10 18:53:00
2:53 PM,68.0,36.0,31,29.92,10.0,South,23.0,32.2,N/A,,Overcast,180,2013-03-10 19:53:00
3:53 PM,69.1,37.0,31,29.89,10.0,South,20.7,28.8,N/A,,Mostly Cloudy,170,2013-03-10 20:53:00
4:53 PM,70.0,36.0,29,29.85,10.0,South,21.9,38.0,N/A,,Overcast,170,2013-03-10 21:53:00
5:53 PM,69.1,37.9,32,29.83,10.0,South,16.1,26.5,N/A,,Overcast,170,2013-03-10 22:53:00
6:53 PM,68.0,37.9,33,29.82,10.0,SSE,15.0,-,N/A,,Overcast,160,2013-03-10 23:53:00
7:53 PM,64.9,43.0,45,29.83,10.0,SSE,11.5,-,0.00,Rain,Light Rain,160,2013-03-11 00:53:00
8:53 PM,64.9,44.1,47,29.81,10.0,South,15.0,25.3,0.00,Rain,Light Rain,170,2013-03-11 01:53:00
9:53 PM,68.0,42.1,39,29.81,10.0,South,20.7,38.0,0.00,,Overcast,170,2013-03-11 02:53:00
10:53 PM,68.0,44.1,42,29.82,10.0,South,19.6,28.8,N/A,,Overcast,190,2013-03-11 03:53:00
11:53 PM,64.9,48.0,54,29.80,9.0,SSW,19.6,38.0,0.00,,Overcast,200,2013-03-11 04:53:00
12:53 AM,62.1,51.1,67,29.80,10.0,South,19.6,34.5,0.01,Rain,Light Rain,190,2013-03-11 05:53:00